Notices

What's New in latest Release from April 7th, 2021:

- Updated Glossary, including Speed of Maximum Gust, and Total Hourly Precipitation

- Updated national and regional climate services offices contacts and prices information

- Addition of station inventory lists for 1981-2010, 1971-2000, and 1961-1990 Normals.

If you haven't already, please take our survey and provide feedback about our website: https://eccc.sondage-survey.ca/f/LanguageSelection.aspx?s=442ca660-fcf1-47c0-95a9-59707d6fd709

Hourly Data Report for December 05, 2020

MUSKOKA
ONTARIO
Current Station Operator: NAVCAN

44°58'29.000" N
79°18'12.000" W
281.90 m
6115529
71532
YQA

Download Data

Hourly Data (December 2020)
Hourly Data Report for December 5, 2020
TIME
LST
Temp Definition
°C
Dew Point Definition
°C
Rel Hum Definition
%
Precip. Amount Definition
mm

Wind Dir Definition
10's deg

Wind Spd Definition
km/h
Visibility Definition
km
Stn Press Definition
kPa
Hmdx Definition


Wind Chill Definition


Weather Definition


00:00 0.0 -0.1 99 LegendMM 32 11 6.4 97.83   -4 Fog
01:00 -0.4 -0.5 99 LegendMM 34 15 16.1 97.86   -5 LegendNANA
02:00 -0.7 -1.3 96 LegendMM 35 13 16.1 97.91   -5 LegendNANA
03:00 -1.3 -2.0 95 LegendMM 36 9 16.1 97.95   -5 LegendNANA
04:00 -1.8 -2.5 95 LegendMM 34 17 16.1 97.96   -7 Snow
05:00 -2.6 -3.4 94 LegendMM 36 13 16.1 97.98   -7 LegendNANA
06:00 -3.1 -4.1 93 LegendMM 2 11 16.1 98.03   -7 LegendNANA
07:00 -4.0 -5.4 90 LegendMM 36 13 16.1 98.14   -9 LegendNANA
08:00 -5.7 -7.5 87 LegendMM 36 8 16.1 98.26   -9 LegendNANA
09:00 -6.4 -8.4 86 LegendMM 36 13 16.1 98.33   -12 LegendNANA
10:00 -6.4 -8.8 83 LegendMM 34 22 16.1 98.40   -14 LegendNANA
11:00 -5.5 -8.4 80 LegendMM 36 13 16.1 98.37   -11 LegendNANA
12:00 -4.5 -7.8 78 LegendMM 34 18 16.1 98.31   -11 LegendNANA
13:00 -3.3 -7.7 72 LegendMM 34 15 16.1 98.26   -8 LegendNANA
14:00 -2.9 -7.1 73 LegendMM 32 17 16.1 98.24   -8 LegendNANA
15:00 -2.8 -7.5 70 LegendMM 34 21 16.1 98.27   -9 LegendNANA
16:00 -3.1 -7.8 70 LegendMM 35 13 16.1 98.31   -8 LegendNANA
17:00 -3.9 -7.4 77 LegendMM 34 17 16.1 98.34   -10 LegendNANA
18:00 -4.3 -7.3 80 LegendMM 35 9 16.1 98.36   -8 LegendNANA
19:00 -4.6 -7.4 81 LegendMM 34 8 16.1 98.36   -8 LegendNANA
20:00 -5.2 -7.6 83 LegendMM 34 9 16.1 98.37   -9 LegendNANA
21:00 -5.2 -7.2 86 LegendMM 32 13 16.1 98.37   -10 LegendNANA
22:00 -4.9 -6.7 87 LegendMM 32 17 16.1 98.33   -11 LegendNANA
23:00 -4.4 -6.4 86 LegendMM 31 15 16.1 98.29   -10 LegendNANA

Notes on Data Quality.

Legend

  • E = Estimated
  • M = Missing
  • NA = Not Available*
  • [empty] = Indicates an unobserved value
Date modified: